Regional Weather Roundup
Issued by NWS

Home | Current Version | Previous Version | Text Only | Print | Product List | Glossary Off
Versions: 1 2 3 4 5 6 7 8 9 10 11 12 13 14 15 16 17 18 19 20 21 22 23 24 25 26 27 28 29 30 31 32 33 34 35 36 37 38 39 40 41 42 43 44 45 46 47 48 49 50

000
ASUS43 KIND 231209
RWRIN

WEATHER ROUNDUP FOR INDIANA
NATIONAL WEATHER SERVICE INDIANAPOLIS IN
700 AM EST THU NOV 23 2017

NOTE: "FAIR" INDICATES FEW OR NO CLOUDS BELOW 12,000 FEET WITH NO
SIGNIFICANT WEATHER AND/OR OBSTRUCTIONS TO VISIBILITY.

* - STATION DOES NOT REPORT WEATHER SUCH AS PRECIPITATION OR FOG.

+ - STATION NOT QUALITY CONTROLLED BY THE NATIONAL WEATHER SERVICE.
    USE DATA WITH CAUTION...ESPECIALLY DEWPOINT AND RELATIVE
    HUMIDITY OBSERVATIONS.

INZ001>003-010>013-019-020-231300-
NORTHWEST INDIANA

CITY           SKY/WX    TMP DP  RH WIND       PRES   REMARKS
GARY /AIRPORT/ CLOUDY    34  19  55 S7        30.08S WCI  28
KNOX *+        CLOUDY    32  23  69 S7        30.08F WCI  26
LA PORTE +     CLOUDY    31  22  69 SW8       30.08S WCI  23
6HR MIN TEMP:  28; 6HR MAX TEMP:  31;

MICHIGAN CITY+ CLOUDY    32  21  64 S7        30.08S WCI  26
MONTICELLO +   CLOUDY    31  23  72 S6        30.11F WCI  25
6HR MIN TEMP:  28; 6HR MAX TEMP:  31;

RENSSELAER +   CLOUDY    32  21  64 S10       30.09F WCI  24
VALPARAISO     CLOUDY    33  22  63 SW9       30.08S WCI  25
6HR MIN TEMP:  30; 6HR MAX TEMP:  33;


$$

LMZ046-743>745-231300-
SOUTHERN LAKE MICHIGAN

STATION/POSITION TIME  TEMP    WIND        PRES    WAVE
                       AIR SEA DIR/SP/G            HT
                 (UTC) (F)     (DEG/KT/KT) (MB)    (FT)
BURNS HARBOR     1140   33     200/ 10/ 13 1018.6F
MICHIGAN CITY    1140   32     190/ 11/ 13   N/A

$$

INZ004-005-014>016-021>024-231300-
NORTH CENTRAL INDIANA

CITY           SKY/WX    TMP DP  RH WIND       PRES   REMARKS
GOSHEN         CLOUDY    30  21  69 S9        30.09S WCI  22
6HR MIN TEMP:  29; 6HR MAX TEMP:  30;

LOGANSPORT +   CLOUDY    30  27  86 S7        30.12F WCI  23
PERU/GRISSOM   MOCLDY    28  26  92 SW6       30.10F WCI  21
6HR MIN TEMP:  27; 6HR MAX TEMP:  30;

ROCHESTER +    MOCLDY    32  28  86 S6        30.10S WCI  26
SOUTH BEND     MOCLDY    29  21  72 SW8       30.08F WCI  21
6HR MIN TEMP:  27; 6HR MAX TEMP:  29;

WARSAW +       MOCLDY    30  23  74 CALM      30.09S

$$

INZ006>009-017-018-025>027-231300-
NORTHEAST INDIANA

CITY           SKY/WX    TMP DP  RH WIND       PRES   REMARKS
AUBURN +       CLEAR     28  23  80 CALM      30.10S
FORT WAYNE     PTCLDY    29  25  85 S8        30.11F WCI  21
6HR MIN TEMP:  29; 6HR MAX TEMP:  31;

HUNTINGTON +   CLEAR     29  25  84 S3        30.11F
6HR MIN TEMP:  28; 6HR MAX TEMP:  30;

KENDALLVILLE + CLOUDY    28  24  84 SW6       30.09S WCI  22

$$

INZ028-029-035-036-043>045-051>053-231300-
WEST CENTRAL INDIANA

CITY           SKY/WX    TMP DP  RH WIND       PRES   REMARKS
CRAWFORDSVL +  CLOUDY    28  26  89 MISG        N/A
6HR MIN TEMP:  23; 6HR MAX TEMP:  28;

GREENCASTLE +  CLOUDY    28  25  86 CALM      30.14S
LAFAYETTE      CLOUDY    30  24  78 S6        30.12F WCI  24
6HR MIN TEMP:  27; 6HR MAX TEMP:  30;

TERRE HAUTE    MOCLDY    25  22  88 CALM      30.15F
6HR MIN TEMP:  24; 6HR MAX TEMP:  29;


$$

INZ030>032-037>040-046>048-054>057-064-065-231300-
CENTRAL INDIANA

CITY           SKY/WX    TMP DP  RH WIND       PRES   REMARKS
CP ATTERBURY + CLOUDY    28  27  93 CALM      30.16S
COLUMBUS       CLOUDY    28  25  86 CALM      30.17
FISHERS *+     CLEAR     27  27 100 S3        30.13F
FRANKFORT +    CLOUDY    32  28  86 SW5       30.13F WCI  28
6HR MIN TEMP:  29; 6HR MAX TEMP:  32;

GREENWOOD *+   MOCLDY    32  28  83 S3        30.14F
6HR MIN TEMP:  28; 6HR MAX TEMP:  33;

INDIANAPOLIS   MOCLDY    29  24  82 S5        30.14F WCI  24
6HR MIN TEMP:  28; 6HR MAX TEMP:  30;

-EAGLE CREEK   CLOUDY    30  23  75 CALM      30.13F
6HR MIN TEMP:  27; 6HR MAX TEMP:  31;

KOKOMO +       PTCLDY    28  25  88 S7        30.12F WCI  21
6HR MIN TEMP:  28; 6HR MAX TEMP:  31;

MARION +       MOCLDY    29  26  88 S8        30.12F WCI  21
MT COMFORT *+  MOCLDY    27  27 100 S6        30.13F WCI  20
SHELBYVILLE    CLOUDY    30  23  75 S7        30.14F WCI  23
6HR MIN TEMP:  23; 6HR MAX TEMP:  31;

ZIONSVILLE +   PTCLDY    28  25  89 S5        30.13S WCI  22
6HR MIN TEMP:  25; 6HR MAX TEMP:  29;


$$

INZ033-034-041-042-049-050-058-059-231300-
EAST CENTRAL INDIANA

CITY           SKY/WX    TMP DP  RH WIND       PRES   REMARKS
MUNCIE         CLOUDY    31  24  75 S7        30.12F WCI  24
6HR MIN TEMP:  29; 6HR MAX TEMP:  32;

RICHMOND +     CLOUDY    28  27  93 S6        30.13F WCI  22

$$

INZ060-061-067>069-081>083-085>088-231300-
SOUTHWEST INDIANA

CITY           SKY/WX    TMP DP  RH WIND       PRES   REMARKS
EVANSVILLE     CLOUDY    26  24  92 CALM      30.18F
6HR MIN TEMP:  26; 6HR MAX TEMP:  29;

HUNTINGBURG +  PTCLDY    25  23  92 CALM      30.18
6HR MIN TEMP:  23; 6HR MAX TEMP:  26;

WASHINGTON +   CLEAR     26  25  94 CALM      30.17S
6HR MIN TEMP:  25; 6HR MAX TEMP:  29;


$$

INZ062-063-066-070>080-084-089>092-231300-
SOUTH CENTRAL AND SOUTHEAST INDIANA

CITY           SKY/WX    TMP DP  RH WIND       PRES   REMARKS
BEDFORD +      CLOUDY    27  25  93 CALM      30.15F
BLOOMINGTON    MOCLDY    27  22  81 CALM      30.13F
6HR MIN TEMP:  26; 6HR MAX TEMP:  28;

MADISON *+     MOCLDY    28  27  93 CALM      30.18F
NORTH VERNON + CLOUDY    27  23  86 SE3       30.16F
SEYMOUR +      CLOUDY    28  25  86 CALM      30.16F

$$




USA.gov is the U.S. government's official web portal to all federal, state and local government web resources and services.